Overview Statistics Trail Chart Weather Telemetry Raw packets
 

This is the latest recevied weather packets stored in our database for station/object W5CDN. If no packets are shown the sender has not sent any weather packets the latest 10 day(s).

<< 30 31 32 33 34 35 36 >>
Time Temp. Humidity Pressure Rain* Wind** Luminosity Snow
1788219236 36.67° C 41% 1012.4 hPa 0 mm - - -
1788218936 36.67° C 41% 1012.2 hPa 0 mm - - -
1788218636 36.67° C 41% 1012.4 hPa 0 mm - - -
1788218336 37.22° C 40% 1012.4 hPa 0 mm - - -
1788218036 36.67° C 40% 1012.2 hPa 0 mm - - -
1788217736 36.67° C 40% 1012.4 hPa 0 mm - - -
1788217436 37.22° C 39% 1012.6 hPa 0 mm - - -
1788217136 37.22° C 39% 1012.3 hPa 0 mm - - -
1788216836 36.67° C 39% 1012.4 hPa 0 mm - - -
1788216536 37.22° C 38% 1012.6 hPa 0 mm - - -
1788216236 36.67° C 39% 1012.6 hPa 0 mm - - -
1788215936 37.22° C 39% 1012.4 hPa 0 mm - - -
1788215636 37.22° C 39% 1012.4 hPa 0 mm - - -
1788215336 36.67° C 39% 1012.4 hPa 0 mm - - -
1788215036 37.22° C 39% 1012.6 hPa 0 mm - - -
1788214736 37.78° C 38% 1012.6 hPa 0 mm - - -
1788214436 36.67° C 38% 1012.7 hPa 0 mm - - -
1788214136 37.22° C 38% 1012.3 hPa 0 mm - - -
1788213836 37.22° C 38% 1012.8 hPa 0 mm - - -
1788213536 37.22° C 38% 1012.7 hPa 0 mm - - -
1788213236 36.67° C 39% 1012.7 hPa 0 mm - - -
1788212936 36.67° C 39% 1012.8 hPa 0 mm - - -
1788212636 36.67° C 40% 1012.8 hPa 0 mm - - -
1788212336 37.78° C 39% 1012.7 hPa 0 mm - - -
1788212036 36.11° C 40% 1012.7 hPa 0 mm - - -

* Rain latest hour (hover to see other rain measurements)
** Current wind speed in m/s (hover to see current wind gust speed)